Tracking 35331 objects as of 17-Sep-2026
HD Live streaming from Space Station
objects crossing your sky now

PSLV DEB


PSLV DEB is no longer on orbit


NORAD ID: 27208
Int'l Code: 2001-049FC
Launch date: October 22, 2001
Source: India (IND)
Launch site: SRIHARIKOTA (SRI)
Decay date: 2002-03-30

Note: This is SATELLITE DEBRIS
Your satellite tracking list
Your tracking list is empty




NASA's NSSDC Master Catalog

Two Line Element Set (TLE):
1 27208U 01049FC  02160.72490746  .03416535  13680-1  10440-1 0  9997
2 27208 097.7223 240.9896 0056543 195.3389 164.6173 15.92388515 25428
Source of the keplerian elements: AFSPC